Regional Weather Roundup
Issued by NWS

Home | Current Version | Previous Version | Text Only | Print | Product List | Glossary On
Versions: 1 2 3 4 5 6 7 8 9 10 11 12 13 14 15 16 17 18 19 20 21 22 23 24 25 26 27 28 29 30 31 32 33 34 35 36 37 38 39 40 41 42 43 44 45 46 47 48 49 50
000
ASUS43 KLMK 241410
RWRKY
NATIONAL WEATHER SERVICE LOUISVILLE KY
900 AM EST FRI NOV 24 2017

NOTE "FAIR" INDICATES FEW OR NO CLOUDS BELOW 12,000 FEET
WITH NO SIGNIFICANT WEATHER AND/OR OBSTRUCTIONS TO VISIBILITY.

KYZ001>023-026-027-061>063-070>075-241500-
WESTERN AND SOUTH CENTRAL KENTUCKY

CITY           SKY/WX    TMP DP  RH WIND       PRES   REMARKS
PADUCAH        MOSUNNY   41  25  53 VRB5      29.96S
HENDERSON      CLOUDY    40  29  64 S7        29.97S
OWENSBORO      CLOUDY    38  26  62 S7        29.99S WCI  33
HOPKINSVILLE   CLOUDY    37  25  63 SE5       30.00R WCI  33
BOWLING GREEN  SUNNY     33  30  88 CALM      30.02S
GLASGOW        SUNNY     34  30  85 CALM      30.01S
$$

KYZ024-025-028>034-038-045-046-053-241500-
NORTH CENTRAL KENTUCKY

CITY           SKY/WX    TMP DP  RH WIND       PRES   REMARKS
LOUISVILLE/SDF MOSUNNY   36  28  73 SE6       29.99F WCI  31
LOUISVILLE/LOU SUNNY     36  29  75 SE6       30.00F WCI  31
FORT KNOX      SUNNY     36  28  72 S3        29.98S
$$

KYZ035>037-039>044-047>052-055>060-089>105-241500-
NORTHEAST KENTUCKY

CITY           SKY/WX    TMP DP  RH WIND       PRES   REMARKS
LEXINGTON      SUNNY     37  26  64 S5        30.00S WCI  33
COVINGTON      SUNNY     36  27  69 S8        29.97S WCI  30
FRANKFORT      SUNNY     34  27  75 CALM      30.00R
$$

KYZ054-064>069-076>088-106>120-241500-
SOUTHEAST KENTUCKY

CITY           SKY/WX    TMP DP  RH WIND       PRES   REMARKS
JACKSON        SUNNY     36  24  62 CALM      30.00F
LONDON         CLOUDY    33  25  72 CALM      30.02S
SOMERSET       SUNNY     32  27  80 CALM      30.04S
MIDDLESBORO    SUNNY     30  28  94 CALM      30.07S
MONTICELLO     SUNNY     35  28  75 N8        30.04S WCI  29
$$




USA.gov is the U.S. government's official web portal to all federal, state and local government web resources and services.